Weather in Parfino

Russia / Novgorod Oblast     57°57′46″N   31°38′45″E
temp.,
°C
wind,
m/s
gust,
m/s
humid.,
%
clouds,
%
prec.,
mm/h
press.,
hPa
HPBL,
m
6 august, fri
fri600:00+12nne2699100 0.2 1013366
03:00+13nne2798100 0.4 1012467
06:00+12nne389991 0.4 1012344
09:00+14ne379492 0.4 1012483
12:00+18ne347099 0.1 1012958
15:00+20e3460100 0.1 10101304
18:00+19ne3567100 0.0 1009666
21:00+17ne41178100 0.0 1009482
7 august, sat
sat700:00+15ene3796100 0.0 1008226
03:00+16e41092100 0.0 1006638
06:00+16e41096100 0.3 1006560
09:00+17ese41097100 1.0 1006600
12:00+17ese41098100 2.4 1006556
15:00+19se379381 2.6 1006485
18:00+20sse379196 1.1 1005348
21:00+17ssw3996100 1.6 1006244
8 august, sun
sun800:00+14s279698 0.0 1008151
03:00+14s2796100 0.0 1009223
06:00+14s2696100 0.0 1010215
09:00+14s2597100 0.4 1011269
12:00+16s249278 0.1 1012428
15:00+20wsw247347 0.9 1013951
18:00+21ssw137190 0.2 1013128
21:00+17s2285100 0.2 101421
9 august, mon
mon900:00+15sse2392100 0.0 101555
03:00+15se2596100 0.0 101596
06:00+15se289416 0.0 1015165
09:00+21s476340 0.0 1014533
12:00+25ssw5758100 0.0 10151364
15:00+25wsw575623 0.0 10161565
18:00+23wsw4662100 0.0 10161137
21:00+18sw22865 0.0 101735
10 august, tue
tue1000:00+15ssw23920 0.0 101854
03:00+15ssw229038 0.0 101835
06:00+14ssw11920 0.0 101912
09:00+20wsw23679 0.0 1019441
12:00+24wsw234995 0.0 10181323
15:00+25wsw224387 0.0 10181816
18:00+24nw21504 0.0 1017891
21:00+18n227485 0.0 101728